Location: Angwan Shehu
(11.2514°N, 7.4613°E)
Time: 08:36:44
(UTC+00:00)

Vanguard 3 - All Passes

Search period start: 20 April 2021 00:00
Search period end: 30 April 2021 00:00
Orbit: 508 x 3262 km, 33.3° (Epoch: 19 April)

Date Brightness Start Highest point End Pass type
(mag) Time Alt. Az. Time Alt. Az. Time Alt. Az.
20 Apr - 06:08:35 10° NNW 06:12:39 28° NE 06:18:41 10° E daylight
20 Apr - 08:18:34 10° WNW 08:24:43 58° SSW 08:35:48 10° SE daylight
20 Apr - 10:33:03 10° WSW 10:39:55 20° SSW 10:49:25 10° SSE daylight
20 Apr - 17:39:09 10° S 17:47:20 15° SSE 17:54:12 10° SE daylight
20 Apr - 19:51:24 10° SSW 20:04:49 38° SSE 20:12:56 10° E visible
20 Apr - 22:07:41 10° WSW 22:18:41 68° NW 22:24:42 10° NE visible
21 Apr - 00:28:17 10° NW 00:30:39 12° NNW 00:32:41 10° N night (unlit)
21 Apr - 04:57:39 10° NNE 04:58:40 11° NNE 04:59:44 10° NE visible
21 Apr - 07:05:13 10° NW 07:10:15 78° NE 07:19:06 10° ESE daylight
21 Apr - 09:17:18 10° W 09:23:46 28° SSW 09:33:52 10° SSE daylight
21 Apr - 18:35:11 10° SSW 18:48:20 27° SSE 18:57:27 10° E visible
21 Apr - 20:50:09 10° SW 21:03:55 72° SSE 21:11:22 10° ENE visible
21 Apr - 23:08:52 10° W 23:16:26 29° NW 23:21:19 10° NNE night (unlit)
22 Apr - 05:52:28 10° NNW 05:56:24 33° NE 06:02:11 10° E daylight
22 Apr - 08:02:53 10° W 08:08:27 44° SSW 08:18:00 10° SE daylight
22 Apr - 10:18:45 10° SW 10:23:44 14° SSW 10:30:00 10° S daylight
22 Apr - 17:19:44 10° SSW 17:30:55 19° SSE 17:39:56 10° ESE daylight
22 Apr - 19:33:03 10° SW 19:48:16 48° SSE 19:57:16 10° ENE visible
22 Apr - 21:50:21 10° WSW 22:02:10 59° NW 22:08:41 10° NE visible
23 Apr - 00:12:16 10° NW 00:14:31 12° NNW 00:16:29 10° N night (unlit)
23 Apr - 04:40:49 10° N 04:42:32 12° NNE 04:44:26 10° NE visible
23 Apr - 06:49:20 10° WNW 06:54:00 82° SW 07:01:57 10° SE daylight
23 Apr - 09:02:14 10° WSW 09:07:35 21° SSW 09:15:20 10° SSE daylight
23 Apr - 16:06:13 10° S 16:12:29 12° SSE 16:18:19 10° SE daylight
23 Apr - 18:16:31 10° SSW 18:31:42 33° SSE 18:42:02 10° E visible
23 Apr - 20:32:17 10° SW 20:47:17 85° SSE 20:55:25 10° ENE visible
23 Apr - 22:52:08 10° W 23:00:04 27° NW 23:05:14 10° NNE visible
24 Apr - 05:36:22 10° NW 05:40:11 40° NE 05:45:42 10° ESE daylight
24 Apr - 07:47:23 10° W 07:52:20 32° SSW 08:00:10 10° SSE daylight
24 Apr - 17:00:49 10° SSW 17:14:18 23° SSE 17:25:00 10° ESE daylight
24 Apr - 19:14:48 10° SW 19:31:32 57° SSE 19:41:24 10° ENE visible
24 Apr - 21:33:00 10° WSW 21:45:34 52° NW 21:52:38 10° NE visible
24 Apr - 23:56:01 10° NW 23:58:25 12° NNW 00:00:28 10° N night (unlit)
25 Apr - 04:24:11 10° N 04:26:25 15° NNE 04:28:54 10° ENE visible
25 Apr - 06:33:31 10° WNW 06:37:50 60° SSW 06:44:48 10° SE daylight
25 Apr - 08:47:44 10° SW 08:51:32 15° SSW 08:56:24 10° S daylight
25 Apr - 15:46:34 10° S 15:56:02 15° SSE 16:04:43 10° SE daylight
25 Apr - 17:58:03 10° SSW 18:14:54 40° SSE 18:26:20 10° E visible
25 Apr - 20:14:27 10° WSW 20:30:32 84° NW 20:39:22 10° NE visible
25 Apr - 22:35:22 10° W 22:43:42 25° NNW 22:49:10 10° NNE visible
26 Apr - 05:20:18 10° NW 05:24:02 53° NE 05:29:14 10° ESE daylight
26 Apr - 07:32:08 10° WSW 07:36:16 22° SSW 07:42:14 10° SSE daylight
26 Apr - 16:42:13 10° SSW 16:57:29 28° SSE 17:09:38 10° E daylight
26 Apr - 18:56:39 10° SW 19:14:38 67° SSE 19:25:23 10° ENE visible
26 Apr - 21:15:41 10° WSW 21:28:55 47° NW 21:36:30 10° NE visible
26 Apr - 23:39:34 10° NW 23:42:20 12° NNW 23:44:41 10° N night (unlit)
27 Apr - 04:07:39 10° NNW 04:10:20 19° NNE 04:13:16 10° ENE visible
27 Apr - 06:17:49 10° WNW 06:21:46 41° SSW 06:27:38 10° SE daylight
27 Apr - 15:27:43 10° S 15:39:23 18° SSE 15:50:06 10° ESE daylight
27 Apr - 17:39:45 10° SW 17:57:53 47° SSE 18:10:25 10° ENE visible
27 Apr - 19:56:41 10° WSW 20:13:38 75° NW 20:23:14 10° NE visible
27 Apr - 22:18:34 10° W 22:27:19 24° NNW 22:33:08 10° NNE visible
28 Apr - 05:04:15 10° NW 05:07:55 76° NE 05:12:46 10° ESE daylight
28 Apr - 07:17:21 10° WSW 07:20:18 15° SSW 07:23:59 10° S daylight
28 Apr - 14:18:14 10° SSE 14:20:34 10° SSE 14:22:54 10° SSE daylight
28 Apr - 16:23:52 10° SSW 16:40:28 33° SSE 16:53:55 10° E daylight
28 Apr - 18:38:37 10° SW 18:57:34 77° SE 19:09:15 10° ENE visible
28 Apr - 20:58:23 10° W 21:12:13 43° NNW 21:20:22 10° NE visible
28 Apr - 23:22:51 10° NW 23:26:16 13° NNW 23:29:06 10° N visible
29 Apr - 03:51:09 10° NNW 03:54:16 25° NNE 03:57:32 10° E visible
29 Apr - 06:02:17 10° W 06:05:45 27° SSW 06:10:24 10° SSE daylight
29 Apr - 15:09:18 10° S 15:22:31 21° SSE 15:34:55 10° ESE daylight
29 Apr - 17:21:36 10° SW 17:40:43 55° SE 17:54:18 10° ENE daylight
29 Apr - 19:38:59 10° WSW 19:56:38 68° NW 20:07:00 10° NE visible
29 Apr - 22:01:43 10° WNW 22:10:56 24° NNW 22:17:07 10° NNE visible
